Location: Bailen
(14.1842°N, 120.7958°E)
Time: 18:02:25
(UTC+00:00)

Atlas Centaur 2 - Pass Details

Date: 12 January 2026
Orbit: 456 x 1249 km, 30.4° (Epoch: 17 February)

Event Time Altitude Azimuth Distance (km) Brightness Sun altitude
Exits shadow 20:11:13 45° 52° (NE) 1,103 2.9 -31.4°
Drops below altitude 10° 20:15:40 10° 59° (ENE) 2,628 5.2 -30.3°
Sets 20:18:37 0° 61° (ENE) 3,709 6.1 -29.6°
